,,PA_Meas_PMT16A,,PR_Meas_QMR101_102,,RH_Meas_QMH101,,SR_Meas_QMS101,,TA_Meas_QMH101,,GenWind,,GenWind,
time,status,PA,status,PR,status,RH,status,SR,status,TA,status,DirAvg,status,SpdAvg,
2015-01-23, 07:24:04,VALID,918.963,VALID,0,VALID,97.6178,VALID,74.779,VALID,18.9814,VALID,129,VALID,0.423438,
2015-01-23, 07:25:04,VALID,919.141,VALID,0,VALID,97.6026,VALID,78.432,VALID,19.0203,VALID,158,VALID,0.337109,
2015-01-23, 07:26:04,VALID,919.155,VALID,0,VALID,97.6026,VALID,82.085,VALID,19.0593,VALID,158,VALID,0.369531,
2015-01-23, 07:27:04,VALID,919.203,VALID,0,VALID,97.5873,VALID,85.4157,VALID,19.0788,VALID,158,VALID,0.53125,
2015-01-23, 07:28:04,VALID,919.204,VALID,0,VALID,97.5645,VALID,88.7464,VALID,19.1178,VALID,153,VALID,0.748047,
2015-01-23, 07:29:04,VALID,919.203,VALID,0,VALID,97.5111,VALID,92.0771,VALID,19.1568,VALID,131,VALID,0.997266,
2015-01-23, 07:30:04,VALID,919.238,VALID,0,VALID,97.4806,VALID,95.3003,VALID,19.2153,VALID,130,VALID,0.409766,
2015-01-23, 07:31:04,VALID,919.273,VALID,0,VALID,97.4425,VALID,98.631,VALID,19.2543,VALID,127,VALID,0.226172,
2015-01-23, 07:32:04,VALID,919.278,VALID,0,VALID,97.3739,VALID,102.284,VALID,19.2738,VALID,131,VALID,0.666016,
2015-01-23, 07:33:04,VALID,919.295,VALID,0,VALID,97.3129,VALID,106.259,VALID,19.3323,VALID,134,VALID,0.243359,
2015-01-23, 07:34:04,VALID,919.301,VALID,0,VALID,97.29,VALID,111.094,VALID,19.3713,VALID,136,VALID,0.382422,
2015-01-23, 07:35:04,VALID,919.319,VALID,0,VALID,97.2367,VALID,116.359,VALID,19.4493,VALID,136,VALID,0.00507812,
2015-01-23, 07:36:04,VALID,919.363,VALID,0,VALID,97.229,VALID,121.194,VALID,19.4688,VALID,136,VALID,0,
2015-01-23, 07:37:04,VALID,919.402,VALID,0,VALID,97.1757,VALID,125.384,VALID,19.5288,VALID,131,VALID,0,
2015-01-23, 07:38:04,VALID,919.422,VALID,0,VALID,97.069,VALID,128.285,VALID,19.5078,VALID,120,VALID,0.687891,
2015-01-23, 07:39:04,VALID,919.404,VALID,0,VALID,96.9775,VALID,131.078,VALID,19.5468,VALID,127,VALID,0.453125,
2015-01-23, 07:40:04,VALID,919.413,VALID,0,VALID,96.8326,VALID,133.549,VALID,19.5468,VALID,138,VALID,0.726953,
2015-01-23, 07:41:04,VALID,919.43,VALID,0,VALID,96.7869,VALID,137.74,VALID,19.6248,VALID,137,VALID,0.323828,
2015-01-23, 07:42:04,VALID,919.385,VALID,0,VALID,96.764,VALID,146.335,VALID,19.7028,VALID,137,VALID,0.605859,
2015-01-23, 07:43:04,VALID,919.433,VALID,0,VALID,96.7259,VALID,167.393,VALID,19.7613,VALID,139,VALID,0.452734,
2015-01-23, 07:44:04,VALID,919.403,VALID,0,VALID,96.6268,VALID,201.345,VALID,19.7808,VALID,123,VALID,0.879297,
2015-01-23, 07:45:04,VALID,919.411,VALID,0,VALID,96.6039,VALID,224.015,VALID,19.9173,VALID,130,VALID,0.119531,
2015-01-23, 07:46:04,VALID,919.434,VALID,0,VALID,96.5963,VALID,236.156,VALID,20.0148,VALID,131,VALID,0.773828,
2015-01-23, 07:47:04,VALID,919.473,VALID,0,VALID,96.4896,VALID,246.148,VALID,20.0928,VALID,141,VALID,0.855078,
2015-01-23, 07:48:04,VALID,919.484,VALID,0,VALID,96.299,VALID,255.495,VALID,20.1903,VALID,141,VALID,0.39375,
2015-01-23, 07:49:04,VALID,919.507,VALID,0,VALID,96.2075,VALID,263.446,VALID,20.3074,VALID,143,VALID,0.303125,
2015-01-23, 07:50:04,VALID,919.507,VALID,0,VALID,96.0093,VALID,270.322,VALID,20.4228,VALID,177,VALID,0.412891,
2015-01-23, 07:51:04,VALID,919.53,VALID,0,VALID,95.3308,VALID,275.479,VALID,20.4439,VALID,181,VALID,1.2918,
2015-01-23, 07:52:04,VALID,919.546,VALID,0,VALID,93.1658,VALID,281.603,VALID,20.4618,VALID,164,VALID,1.2418,
2015-01-23, 07:53:04,VALID,919.511,VALID,0,VALID,92.0832,VALID,286.008,VALID,20.5219,VALID,173,VALID,0.658984,
2015-01-23, 07:54:04,VALID,919.505,VALID,0,VALID,91.4352,VALID,289.446,VALID,20.5594,VALID,153,VALID,1.04453,
2015-01-23, 07:55:04,VALID,919.522,VALID,0,VALID,91.1913,VALID,291.166,VALID,20.6194,VALID,173,VALID,0.866406,
2015-01-23, 07:56:04,VALID,919.532,VALID,0,VALID,90.6195,VALID,291.81,VALID,20.6585,VALID,159,VALID,0.694531,
2015-01-23, 07:57:04,VALID,919.519,VALID,0,VALID,89.7429,VALID,292.455,VALID,20.7185,VALID,160,VALID,1.40625,
2015-01-23, 07:58:04,VALID,919.542,VALID,0,VALID,89.3769,VALID,293.529,VALID,20.717,VALID,151,VALID,1.06328,
2015-01-23, 07:59:04,VALID,919.511,VALID,0,VALID,89.0796,VALID,291.488,VALID,20.7365,VALID,172,VALID,0.842188,
2015-01-23, 08:00:04,VALID,919.518,VALID,0,VALID,88.4088,VALID,289.232,VALID,20.7739,VALID,147,VALID,1.67578,
2015-01-23, 08:01:04,VALID,919.511,VALID,0,VALID,89.1482,VALID,286.008,VALID,20.8519,VALID,154,VALID,0.467187,
2015-01-23, 08:02:04,VALID,919.509,VALID,0,VALID,86.9679,VALID,286.223,VALID,20.8925,VALID,140,VALID,1.76367,
2015-01-23, 08:03:04,VALID,919.534,VALID,0,VALID,86.6172,VALID,285.579,VALID,20.93,VALID,123,VALID,1.33281,
2015-01-23, 08:04:04,VALID,919.525,VALID,0,VALID,86.4419,VALID,285.041,VALID,21.0275,VALID,139,VALID,1.08984,
2015-01-23, 08:05:04,VALID,919.536,VALID,0,VALID,86.1446,VALID,286.008,VALID,21.1055,VALID,172,VALID,1.27344,
2015-01-23, 08:06:04,VALID,919.504,VALID,0,VALID,86.2818,VALID,285.364,VALID,21.1836,VALID,168,VALID,1.17461,
2015-01-23, 08:07:04,VALID,919.52,VALID,0,VALID,85.7406,VALID,284.827,VALID,21.2616,VALID,166,VALID,1.10117,
2015-01-23, 08:08:04,VALID,919.53,VALID,0,VALID,85.2145,VALID,284.397,VALID,21.3591,VALID,167,VALID,0.829297,
2015-01-23, 08:09:04,VALID,919.511,VALID,0,VALID,85.6643,VALID,283.43,VALID,21.4355,VALID,177,VALID,0.567969,
2015-01-23, 08:10:04,VALID,919.476,VALID,0,VALID,84.9172,VALID,284.504,VALID,21.5559,VALID,167,VALID,1.08555,
2015-01-23, 08:11:04,VALID,919.495,VALID,0,VALID,84.2464,VALID,284.504,VALID,21.5754,VALID,164,VALID,1.24844,
2015-01-23, 08:12:04,VALID,919.478,VALID,0,VALID,83.8881,VALID,283.645,VALID,21.6144,VALID,172,VALID,1.04961,
2015-01-23, 08:13:04,VALID,919.495,VALID,0,VALID,82.9199,VALID,283.215,VALID,21.6144,VALID,181,VALID,1.32187,
2015-01-23, 08:14:04,VALID,919.497,VALID,0,VALID,82.6607,VALID,282.355,VALID,21.6323,VALID,137,VALID,1.35312,
2015-01-23, 08:15:04,VALID,919.501,VALID,0,VALID,82.5845,VALID,283.645,VALID,21.6518,VALID,167,VALID,1.0207,
2015-01-23, 08:16:04,VALID,919.482,VALID,0,VALID,81.7993,VALID,283.107,VALID,21.6729,VALID,148,VALID,1.3668,
2015-01-23, 08:17:04,VALID,919.504,VALID,0,VALID,82.2872,VALID,286.653,VALID,21.6713,VALID,173,VALID,0.841406,
2015-01-23, 08:18:04,VALID,919.495,VALID,0,VALID,82.7293,VALID,286.76,VALID,21.7298,VALID,146,VALID,0.953125,
2015-01-23, 08:19:04,VALID,919.479,VALID,0,VALID,82.2643,VALID,288.265,VALID,21.7298,VALID,149,VALID,1.16094,
2015-01-23, 08:20:04,VALID,919.471,VALID,0,VALID,82.6836,VALID,287.513,VALID,21.7688,VALID,132,VALID,1.12422,
2015-01-23, 08:21:04,VALID,919.491,VALID,0,VALID,83.0342,VALID,291.38,VALID,21.9054,VALID,155,VALID,0.568359,
2015-01-23, 08:22:04,VALID,919.47,VALID,0,VALID,81.3571,VALID,294.604,VALID,21.964,VALID,143,VALID,1.3875,
2015-01-23, 08:23:04,VALID,919.488,VALID,0,VALID,81.1894,VALID,297.29,VALID,21.9835,VALID,162,VALID,0.991406,
2015-01-23, 08:24:04,VALID,919.502,VALID,0,VALID,79.6113,VALID,302.554,VALID,22.0208,VALID,133,VALID,1.84687,
2015-01-23, 08:25:04,VALID,919.49,VALID,0,VALID,80.084,VALID,308.356,VALID,22.0208,VALID,136,VALID,1.25078,
2015-01-23, 08:26:04,VALID,919.466,VALID,0,VALID,81.4943,VALID,313.084,VALID,22.081,VALID,119,VALID,1.26641,
2015-01-23, 08:27:04,VALID,919.465,VALID,0,VALID,81.2961,VALID,317.489,VALID,22.1184,VALID,179,VALID,1.25898,
2015-01-23, 08:28:04,VALID,919.469,VALID,0,VALID,82.028,VALID,320.067,VALID,22.2354,VALID,149,VALID,0.988672,
2015-01-23, 08:29:04,VALID,919.453,VALID,0,VALID,79.5885,VALID,322.861,VALID,22.2923,VALID,174,VALID,1.43984,
2015-01-23, 08:30:04,VALID,919.454,VALID,0,VALID,80.2288,VALID,323.076,VALID,22.333,VALID,149,VALID,0.612109,
2015-01-23, 08:31:04,VALID,919.454,VALID,0,VALID,80.8082,VALID,326.406,VALID,22.5477,VALID,183,VALID,0.507422,
2015-01-23, 08:32:04,VALID,919.469,VALID,0,VALID,77.8503,VALID,330.167,VALID,22.6843,VALID,169,VALID,1.27148,
2015-01-23, 08:33:04,VALID,919.443,VALID,0,VALID,77.7893,VALID,334.894,VALID,22.7623,VALID,166,VALID,1.00312,
2015-01-23, 08:34:04,VALID,919.463,VALID,0,VALID,78.1858,VALID,336.506,VALID,22.8794,VALID,83,VALID,1.28672,
2015-01-23, 08:35:04,VALID,919.428,VALID,0,VALID,76.5238,VALID,340.159,VALID,22.9397,VALID,137,VALID,1.02539,
2015-01-23, 08:36:04,VALID,919.445,VALID,0,VALID,77.4234,VALID,341.663,VALID,22.8599,VALID,123,VALID,0.946875,
2015-01-23, 08:37:04,VALID,919.457,VALID,0,VALID,76.9279,VALID,345.316,VALID,22.9592,VALID,158,VALID,1.075,
2015-01-23, 08:38:04,VALID,919.451,VALID,0,VALID,76.5543,VALID,353.696,VALID,23.0941,VALID,159,VALID,0.642969,
2015-01-23, 08:39:04,VALID,919.467,VALID,0,VALID,77.2862,VALID,359.068,VALID,23.0746,VALID,115,VALID,1.10391,
2015-01-23, 08:40:04,VALID,919.448,VALID,0,VALID,76.4247,VALID,364.763,VALID,22.9965,VALID,152,VALID,0.526172,
2015-01-23, 08:41:04,VALID,919.5,VALID,0,VALID,77.8579,VALID,368.308,VALID,23.0551,VALID,163,VALID,0.787109,
2015-01-23, 08:42:04,VALID,919.445,VALID,0,VALID,76.6839,VALID,371.639,VALID,23.1722,VALID,48,VALID,1.77734,
2015-01-23, 08:43:04,VALID,919.477,VALID,0,VALID,78.201,VALID,371.424,VALID,23.1331,VALID,48,VALID,1.07031,
2015-01-23, 08:44:04,VALID,919.477,VALID,0,VALID,76.7068,VALID,375.185,VALID,23.0728,VALID,76,VALID,0.978516,
2015-01-23, 08:45:04,VALID,919.472,VALID,0,VALID,78.2849,VALID,380.342,VALID,23.1119,VALID,56,VALID,0.798047,
2015-01-23, 08:46:04,VALID,919.453,VALID,0,VALID,74.9229,VALID,383.243,VALID,23.0728,VALID,148,VALID,1.17422,
2015-01-23, 08:47:04,VALID,919.455,VALID,0,VALID,76.2113,VALID,386.358,VALID,23.1314,VALID,175,VALID,1.21758,
2015-01-23, 08:48:04,VALID,919.44,VALID,0,VALID,75.4108,VALID,390.978,VALID,23.268,VALID,174,VALID,0.879687,
2015-01-23, 08:49:04,VALID,919.41,VALID,0,VALID,75.5176,VALID,395.276,VALID,23.3088,VALID,118,VALID,1.41055,
2015-01-23, 08:50:04,VALID,919.398,VALID,0,VALID,77.4158,VALID,398.069,VALID,23.2094,VALID,117,VALID,1.27891,
2015-01-23, 08:51:04,VALID,919.371,VALID,0,VALID,76.3333,VALID,354.556,VALID,23.1331,VALID,144,VALID,1.81172,
2015-01-23, 08:52:04,VALID,919.376,VALID,0,VALID,75.1593,VALID,383.887,VALID,23.0143,VALID,104,VALID,1.01172,
2015-01-23, 08:53:04,VALID,919.365,VALID,0,VALID,75.8377,VALID,403.442,VALID,23.0728,VALID,174,VALID,1.29531,
2015-01-23, 08:54:04,VALID,919.382,VALID,0,VALID,76.1274,VALID,402.582,VALID,23.1136,VALID,169,VALID,1.34258,
2015-01-23, 08:55:04,VALID,919.403,VALID,0,VALID,75.4413,VALID,408.061,VALID,23.1491,VALID,187,VALID,0.721875,
2015-01-23, 08:56:04,VALID,919.406,VALID,0,VALID,74.7857,VALID,411.822,VALID,23.2502,VALID,148,VALID,0.875,
2015-01-23, 08:57:04,VALID,919.395,VALID,0,VALID,75.8225,VALID,416.657,VALID,23.2485,VALID,88,VALID,1.00977,
2015-01-23, 08:58:04,VALID,919.385,VALID,0,VALID,75.022,VALID,419.021,VALID,23.229,VALID,158,VALID,1.72617,
2015-01-23, 08:59:04,VALID,919.407,VALID,0,VALID,75.4489,VALID,423.855,VALID,23.2272,VALID,110,VALID,1.75234,
2015-01-23, 09:00:04,VALID,919.393,VALID,0,VALID,74.8696,VALID,425.037,VALID,23.1704,VALID,96,VALID,1.67813,
2015-01-23, 09:01:04,VALID,919.418,VALID,0,VALID,76.2494,VALID,420.31,VALID,23.1899,VALID,176,VALID,1.6832,
2015-01-23, 09:02:04,VALID,919.471,VALID,0,VALID,75.4718,VALID,420.847,VALID,23.2485,VALID,171,VALID,1.64141,
2015-01-23, 09:03:04,VALID,919.459,VALID,0,VALID,74.6104,VALID,434.707,VALID,23.1687,VALID,162,VALID,1.3125,
2015-01-23, 09:04:04,VALID,919.441,VALID,0,VALID,77.2557,VALID,435.996,VALID,23.2272,VALID,123,VALID,1.53906,
2015-01-23, 09:05:04,VALID,919.476,VALID,0,VALID,76.9203,VALID,277.95,VALID,23.229,VALID,69,VALID,1.61367,
2015-01-23, 09:06:04,VALID,919.481,VALID,0,VALID,77.4615,VALID,452.327,VALID,23.3265,VALID,139,VALID,1.05391,
2015-01-23, 09:07:04,VALID,919.489,VALID,0,VALID,76.3638,VALID,458.451,VALID,23.4437,VALID,148,VALID,0.574609,
2015-01-23, 09:08:04,VALID,919.494,VALID,0,VALID,75.0144,VALID,464.038,VALID,23.559,VALID,167,VALID,0.885547,
2015-01-23, 09:09:04,VALID,919.497,VALID,0,VALID,75.4413,VALID,465.865,VALID,23.6779,VALID,169,VALID,1.38398,
2015-01-23, 09:10:04,VALID,919.476,VALID,0,VALID,73.6041,VALID,463.716,VALID,23.6992,VALID,183,VALID,1.16914,
2015-01-23, 09:11:04,VALID,919.486,VALID,0,VALID,71.4467,VALID,471.237,VALID,23.6602,VALID,177,VALID,1.00586,
2015-01-23, 09:12:04,VALID,919.495,VALID,0,VALID,74.2368,VALID,472.849,VALID,23.7169,VALID,122,VALID,0.199609,
2015-01-23, 09:13:04,VALID,919.453,VALID,0,VALID,72.735,VALID,471.882,VALID,23.8536,VALID,181,VALID,0.392188,
2015-01-23, 09:14:04,VALID,919.48,VALID,0,VALID,72.6893,VALID,479.725,VALID,24.0506,VALID,163,VALID,1.01523,
2015-01-23, 09:15:04,VALID,919.469,VALID,0,VALID,72.3538,VALID,475.749,VALID,24.1269,VALID,195,VALID,1.23086,
2015-01-23, 09:16:04,VALID,919.427,VALID,0,VALID,72.8494,VALID,480.155,VALID,24.2245,VALID,175,VALID,1.39297,
2015-01-23, 09:17:04,VALID,919.433,VALID,0,VALID,72.5216,VALID,493.585,VALID,24.0701,VALID,81,VALID,1.4625,
2015-01-23, 09:18:04,VALID,919.438,VALID,0,VALID,71.5763,VALID,505.081,VALID,24.0896,VALID,80,VALID,0.19375,
2015-01-23, 09:19:04,VALID,919.435,VALID,0,VALID,72.4301,VALID,517.437,VALID,24.0292,VALID,142,VALID,0,
2015-01-23, 09:20:04,VALID,919.442,VALID,0,VALID,73.6346,VALID,511.85,VALID,23.9707,VALID,134,VALID,0.392578,
2015-01-23, 09:21:04,VALID,919.429,VALID,0,VALID,70.9054,VALID,521.412,VALID,23.9902,VALID,134,VALID,0.00507812,
2015-01-23, 09:22:04,VALID,919.426,VALID,0,VALID,71.8354,VALID,521.197,VALID,24.1269,VALID,167,VALID,0,
2015-01-23, 09:23:04,VALID,919.47,VALID,0,VALID,71.4543,VALID,519.693,VALID,24.1464,VALID,161,VALID,0.736719,
2015-01-23, 09:24:04,VALID,919.457,VALID,0,VALID,72.4682,VALID,521.734,VALID,24.1445,VALID,145,VALID,0,
2015-01-23, 09:25:04,VALID,919.446,VALID,0,VALID,71.9803,VALID,532.478,VALID,24.1445,VALID,85,VALID,0.628906,
2015-01-23, 09:26:04,VALID,919.471,VALID,0,VALID,72.7731,VALID,537.635,VALID,24.2617,VALID,174,VALID,0.0757812,
2015-01-23, 09:27:04,VALID,919.472,VALID,0,VALID,69.922,VALID,538.602,VALID,24.3983,VALID,192,VALID,1.19219,
2015-01-23, 09:28:04,VALID,919.448,VALID,0,VALID,72.7121,VALID,540.214,VALID,24.5545,VALID,149,VALID,0.831641,
2015-01-23, 09:29:04,VALID,919.469,VALID,0,VALID,70.3489,VALID,542.255,VALID,24.574,VALID,161,VALID,2.38711,
2015-01-23, 09:30:04,VALID,919.506,VALID,0,VALID,73.3601,VALID,469.625,VALID,24.6131,VALID,102,VALID,0.708594,
2015-01-23, 09:31:04,VALID,919.522,VALID,0,VALID,69.5027,VALID,363.796,VALID,24.7302,VALID,110,VALID,1.16953,
2015-01-23, 09:32:04,VALID,919.514,VALID,0,VALID,70.1964,VALID,287.298,VALID,24.4941,VALID,105,VALID,1.37773,
2015-01-23, 09:33:04,VALID,919.512,VALID,0,VALID,70.2879,VALID,253.561,VALID,24.4355,VALID,170,VALID,1.11484,
2015-01-23, 09:34:04,VALID,919.521,VALID,0,VALID,70.631,VALID,276.016,VALID,24.4374,VALID,159,VALID,1.10977,
2015-01-23, 09:35:04,VALID,919.511,VALID,0,VALID,70.7758,VALID,266.669,VALID,24.4197,VALID,113,VALID,0.889063,
2015-01-23, 09:36:04,VALID,919.495,VALID,0,VALID,70.8063,VALID,281.926,VALID,24.1445,VALID,91,VALID,1.70195,
2015-01-23, 09:37:04,VALID,919.473,VALID,0,VALID,71.4771,VALID,300.191,VALID,23.928,VALID,120,VALID,0.935547,
2015-01-23, 09:38:04,VALID,919.479,VALID,0,VALID,72.392,VALID,309.968,VALID,23.8713,VALID,138,VALID,1.65273,
2015-01-23, 09:39:04,VALID,919.458,VALID,0,VALID,73.4135,VALID,330.704,VALID,23.7932,VALID,153,VALID,1.10469,
2015-01-23, 09:40:04,VALID,919.454,VALID,0,VALID,73.4364,VALID,299.009,VALID,23.5785,VALID,134,VALID,2.22891,
2015-01-23, 09:41:04,VALID,919.442,VALID,0,VALID,74.6027,VALID,278.165,VALID,23.5217,VALID,100,VALID,0.978125,
2015-01-23, 09:42:04,VALID,919.478,VALID,0,VALID,75.388,VALID,308.464,VALID,23.4596,VALID,134,VALID,0.6375,
2015-01-23, 09:43:04,VALID,919.432,VALID,0,VALID,75.2889,VALID,466.509,VALID,23.3638,VALID,135,VALID,2.02891,
2015-01-23, 09:44:04,VALID,919.413,VALID,0,VALID,76.0817,VALID,408.061,VALID,23.307,VALID,141,VALID,0.923437,
2015-01-23, 09:45:04,VALID,919.428,VALID,0,VALID,73.4211,VALID,642.713,VALID,23.3425,VALID,129,VALID,2.79297,
2015-01-23, 09:46:04,VALID,919.414,VALID,0,VALID,75.4032,VALID,557.082,VALID,23.4028,VALID,205,VALID,1.48789,
2015-01-23, 09:47:04,VALID,919.399,VALID,0,VALID,74.5341,VALID,592.86,VALID,23.5962,VALID,168,VALID,2.1207,
2015-01-23, 09:48:04,VALID,919.412,VALID,0,VALID,72.3691,VALID,479.402,VALID,23.6352,VALID,126,VALID,1.08359,
2015-01-23, 09:49:04,VALID,919.391,VALID,0,VALID,75.5023,VALID,386.788,VALID,23.8304,VALID,129,VALID,1.70586,
2015-01-23, 09:50:04,VALID,919.409,VALID,0,VALID,73.6651,VALID,580.719,VALID,23.8908,VALID,148,VALID,1.71875,
2015-01-23, 09:51:04,VALID,919.366,VALID,0,VALID,71.7211,VALID,403.871,VALID,23.6956,VALID,167,VALID,1.88086,
2015-01-23, 09:52:04,VALID,919.371,VALID,0,VALID,73.1619,VALID,467.476,VALID,23.7151,VALID,148,VALID,1.94258,
2015-01-23, 09:53:04,VALID,919.356,VALID,0,VALID,73.9243,VALID,632.399,VALID,23.795,VALID,139,VALID,1.46992,
2015-01-23, 09:54:04,VALID,919.345,VALID,0,VALID,73.4211,VALID,649.052,VALID,23.9085,VALID,134,VALID,1.4707,
2015-01-23, 09:55:04,VALID,919.349,VALID,0,VALID,71.622,VALID,590.174,VALID,24.0469,VALID,165,VALID,1.94727,
2015-01-23, 09:56:04,VALID,919.339,VALID,0,VALID,71.1112,VALID,672.474,VALID,24.086,VALID,157,VALID,2.58086,
2015-01-23, 09:57:04,VALID,919.344,VALID,0,VALID,71.378,VALID,656.895,VALID,23.8694,VALID,154,VALID,1.64805,
2015-01-23, 09:58:04,VALID,919.326,VALID,0,VALID,74.7628,VALID,632.828,VALID,23.9262,VALID,128,VALID,1.54609,
2015-01-23, 09:59:04,VALID,919.373,VALID,0,VALID,70.9054,VALID,646.796,VALID,24.0842,VALID,133,VALID,1.79961,
2015-01-23, 10:00:04,VALID,919.357,VALID,0,VALID,70.2574,VALID,496.593,VALID,24.1232,VALID,162,VALID,0.983594,
2015-01-23, 10:01:04,VALID,919.36,VALID,0,VALID,72.1023,VALID,487.783,VALID,24.1836,VALID,131,VALID,1.98438,
2015-01-23, 10:02:04,VALID,919.32,VALID,0,VALID,70.7453,VALID,394.416,VALID,24.0665,VALID,145,VALID,1.30234,
2015-01-23, 10:03:04,VALID,919.304,VALID,0,VALID,70.3946,VALID,320.282,VALID,24.2812,VALID,122,VALID,0.541016,
2015-01-23, 10:04:04,VALID,919.289,VALID,0,VALID,70.2498,VALID,291.488,VALID,24.3769,VALID,133,VALID,1.04336,
2015-01-23, 10:05:04,VALID,919.263,VALID,0,VALID,71.0197,VALID,260.975,VALID,24.6326,VALID,158,VALID,0.0527344,
2015-01-23, 10:06:04,VALID,919.235,VALID,0,VALID,68.1305,VALID,252.809,VALID,24.7302,VALID,121,VALID,0.203516,
2015-01-23, 10:07:04,VALID,919.214,VALID,0,VALID,72.8112,VALID,255.925,VALID,24.7107,VALID,37,VALID,1.38789,
2015-01-23, 10:08:04,VALID,919.166,VALID,0,VALID,68.6184,VALID,266.239,VALID,24.6131,VALID,43,VALID,2.72148,
2015-01-23, 10:09:04,VALID,919.158,VALID,0,VALID,70.1278,VALID,275.909,VALID,24.3983,VALID,68,VALID,3.13633,
2015-01-23, 10:10:04,VALID,919.184,VALID,0,VALID,73.7794,VALID,282.893,VALID,24.2812,VALID,127,VALID,1.0543,
2015-01-23, 10:11:04,VALID,919.179,VALID,0,VALID,72.5902,VALID,282.678,VALID,24.3788,VALID,94,VALID,0.839453,
2015-01-23, 10:12:04,VALID,919.179,VALID,0,VALID,69.617,VALID,285.471,VALID,24.2421,VALID,136,VALID,2.43594,
2015-01-23, 10:13:04,VALID,919.141,VALID,0,VALID,70.7834,VALID,290.413,VALID,24.2245,VALID,77,VALID,2.0125,
2015-01-23, 10:14:04,VALID,919.133,VALID,0,VALID,69.8,VALID,293.959,VALID,24.125,VALID,68,VALID,2.75273,
2015-01-23, 10:15:04,VALID,919.144,VALID,0,VALID,70.852,VALID,298.901,VALID,24.0061,VALID,143,VALID,1.32227,
2015-01-23, 10:16:04,VALID,919.158,VALID,0,VALID,72.8417,VALID,306.207,VALID,24.1055,VALID,43,VALID,1.38984,
2015-01-23, 10:17:04,VALID,919.197,VALID,0,VALID,69.2282,VALID,319.96,VALID,24.1817,VALID,123,VALID,2.29961,
2015-01-23, 10:18:04,VALID,919.142,VALID,0,VALID,69.274,VALID,336.613,VALID,24.0469,VALID,119,VALID,2.62656,
2015-01-23, 10:19:04,VALID,919.144,VALID,0,VALID,69.7238,VALID,351.762,VALID,23.8731,VALID,124,VALID,0.746484,
2015-01-23, 10:20:04,VALID,919.163,VALID,0,VALID,70.2727,VALID,368.201,VALID,23.8499,VALID,95,VALID,2.92109,
2015-01-23, 10:21:04,VALID,919.099,VALID,0,VALID,70.5852,VALID,378.623,VALID,23.7719,VALID,83,VALID,0.997656,
2015-01-23, 10:22:04,VALID,919.131,VALID,0,VALID,71.8126,VALID,405.698,VALID,23.8926,VALID,135,VALID,0.70625,
2015-01-23, 10:23:04,VALID,919.102,VALID,0,VALID,73.2458,VALID,422.888,VALID,24.0097,VALID,139,VALID,0.853516,
2015-01-23, 10:24:04,VALID,919.111,VALID,0,VALID,73.0247,VALID,423.855,VALID,24.125,VALID,174,VALID,1.43164,
2015-01-23, 10:25:04,VALID,919.095,VALID,0,VALID,72.0108,VALID,444.269,VALID,24.3184,VALID,165,VALID,0.059375,
2015-01-23, 10:26:04,VALID,919.104,VALID,0,VALID,71.1112,VALID,416.764,VALID,24.5722,VALID,150,VALID,0,
2015-01-23, 10:27:04,VALID,919.093,VALID,0,VALID,68.8318,VALID,401.615,VALID,24.7107,VALID,163,VALID,0,
2015-01-23, 10:28:04,VALID,919.08,VALID,0,VALID,69.6475,VALID,390.763,VALID,24.5917,VALID,147,VALID,0.632813,
2015-01-23, 10:29:04,VALID,919.063,VALID,0,VALID,68.8318,VALID,404.409,VALID,24.535,VALID,184,VALID,0,
2015-01-23, 10:30:04,VALID,919.068,VALID,0,VALID,68.7632,VALID,373.036,VALID,24.5312,VALID,186,VALID,0,
2015-01-23, 10:31:04,VALID,919.072,VALID,0,VALID,69.3121,VALID,384.747,VALID,24.693,VALID,153,VALID,0,
2015-01-23, 10:32:04,VALID,919.077,VALID,0,VALID,70.5623,VALID,476.287,VALID,24.693,VALID,140,VALID,0,
2015-01-23, 10:33:04,VALID,919.134,VALID,0,VALID,68.6794,VALID,454.369,VALID,24.7302,VALID,205,VALID,1.3082,
2015-01-23, 10:34:04,VALID,919.153,VALID,0,VALID,67.7493,VALID,489.609,VALID,24.6131,VALID,153,VALID,0.904297,
2015-01-23, 10:35:04,VALID,919.135,VALID,0,VALID,70.2117,VALID,457.807,VALID,24.5368,VALID,132,VALID,0.00195313,
2015-01-23, 10:36:04,VALID,919.137,VALID,0,VALID,70.3336,VALID,471.452,VALID,24.5368,VALID,171,VALID,1.25195,
2015-01-23, 10:37:04,VALID,919.171,VALID,0,VALID,70.5471,VALID,494.122,VALID,24.5545,VALID,163,VALID,1.00117,
2015-01-23, 10:38:04,VALID,919.198,VALID,0,VALID,67.6959,VALID,495.841,VALID,24.5136,VALID,169,VALID,2.04805,
2015-01-23, 10:39:04,VALID,919.184,VALID,0,VALID,70.1354,VALID,473.708,VALID,24.5136,VALID,186,VALID,0.546484,
2015-01-23, 10:40:04,VALID,919.177,VALID,0,VALID,69.3655,VALID,470.807,VALID,24.5136,VALID,138,VALID,0.169531,
2015-01-23, 10:41:04,VALID,919.193,VALID,0,VALID,69.2359,VALID,448.244,VALID,24.574,VALID,163,VALID,0,
2015-01-23, 10:42:04,VALID,919.187,VALID,0,VALID,68.7098,VALID,474.138,VALID,24.6521,VALID,104,VALID,0.00585938,
2015-01-23, 10:43:04,VALID,919.194,VALID,0,VALID,70.2879,VALID,474.138,VALID,24.6698,VALID,60,VALID,0.510938,
2015-01-23, 10:44:04,VALID,919.2,VALID,0,VALID,69.0453,VALID,483.593,VALID,24.7088,VALID,43,VALID,0,
2015-01-23, 10:45:04,VALID,919.195,VALID,0,VALID,70.6614,VALID,495.519,VALID,24.7497,VALID,140,VALID,0,
2015-01-23, 10:46:04,VALID,919.235,VALID,0,VALID,69.5942,VALID,475.427,VALID,24.7302,VALID,123,VALID,0,
2015-01-23, 10:47:04,VALID,919.245,VALID,0,VALID,67.9856,VALID,433.418,VALID,24.7693,VALID,135,VALID,0,
2015-01-23, 10:48:04,VALID,919.21,VALID,0,VALID,68.5879,VALID,422.566,VALID,24.574,VALID,149,VALID,2.54336,
2015-01-23, 10:49:04,VALID,919.202,VALID,0,VALID,70.0439,VALID,393.449,VALID,24.3788,VALID,116,VALID,1.09844,
2015-01-23, 10:50:04,VALID,919.231,VALID,0,VALID,72.6283,VALID,385.499,VALID,24.4355,VALID,119,VALID,1.02695,
2015-01-23, 10:51:04,VALID,919.273,VALID,0,VALID,68.4125,VALID,372.176,VALID,24.3788,VALID,134,VALID,1.44648,
2015-01-23, 10:52:04,VALID,919.201,VALID,0,VALID,69.9906,VALID,360.895,VALID,24.3202,VALID,64,VALID,2.33984,
2015-01-23, 10:53:04,VALID,919.203,VALID,0,VALID,71.2942,VALID,329.307,VALID,24.2208,VALID,92,VALID,0.839453,
2015-01-23, 10:54:04,VALID,919.201,VALID,0,VALID,70.7529,VALID,314.373,VALID,24.3202,VALID,97,VALID,0.788281,
2015-01-23, 10:55:04,VALID,919.209,VALID,0,VALID,70.387,VALID,302.125,VALID,24.2989,VALID,138,VALID,1.45313,
2015-01-23, 10:56:04,VALID,919.188,VALID,0,VALID,72.0794,VALID,295.248,VALID,24.2031,VALID,116,VALID,0.594922,
2015-01-23, 10:57:04,VALID,919.179,VALID,0,VALID,72.6664,VALID,297.075,VALID,24.2617,VALID,96,VALID,0.0929687,
2015-01-23, 10:58:04,VALID,919.159,VALID,0,VALID,72.026,VALID,309.431,VALID,24.2598,VALID,170,VALID,0.662891,